Change the Weather History Date:

Friday, July 5, 2013

  Actual Average Record
Temperature  
Mean Temperature 79 °F 70 °F  
Max Temperature 89 °F 82 °F 98 °F (1988)
Min Temperature 68 °F 58 °F 43 °F (1967)
Degree Days  
Heating Degree Days 0 1  
Month to date heating degree days 0 5  
Since 1 June heating degree days 87 83  
Since 1 July heating degree days 0 5  
Cooling Degree Days 14 6  
Month to date cooling degree days 35 29  
Year to date cooling degree days 145 149  
Since 1 June cooling degree days 134 124  
Growing Degree Days 28 (Base 50)    
Moisture  
Dew Point 59 °F    
Average Humidity 53    
Maximum Humidity 66    
Minimum Humidity 40    
Precipitation  
Precipitation 0.00 in 0.12 in 1.95 in (1949)
Month to date precipitation 0.00 0.59  
Year to date precipitation 18.05 13.07  
Snow  
Snow 0.00 in 0.00 in 0.00 in ()
Month to date snowfall 0.0 0.0  
Since 1 June snowfall 0.0 0.0  
Since 1 July snowfall 0.0 0.0  
Snow Depth 0.00 in    
Sea Level Pressure  
Sea Level Pressure 29.83 in    
Wind  
Wind Speed 13 mph (South)    
Max Wind Speed 25 mph    
Max Gust Speed 32 mph    
Visibility 10 miles    
Events      
T = Trace of Precipitation, MM = Missing Value Source: NWS Daily Summary

Daily Weather History Graph

Daily Weather History Graph

Search for Another Location

Airport or City:

Trip Planner

Search our weather history database for the weather conditions in past years. The results will help you decide how hot, cold, wet, or windy it might be!

Date:

Astronomy

Jul. 05, 2013 Rise Set
Actual Time 5:33 AM CDT 9:07 PM CDT
Civil Twilight 4:56 AM CDT 9:44 PM CDT
Nautical Twilight 4:06 AM CDT 10:34 PM CDT
Astronomical Twilight 3:01 AM CDT 11:39 PM CDT
Moon 3:36 AM CDT (7/5) 7:00 PM CDT (7/5)
Length of Visible Light 16h 48m
Length of Day
15h 33m
Waning Crescent, 6% of the Moon is Illuminated
Jul 5
Waning Crescent
Jul 8
New
Jul 15
First Quarter
Jul 22
Full
Jul 29
Last Quarter

Hourly Weather History & Observations

Time (CDT) Temp. Heat Index Dew Point Humidity Pressure Visibility Wind Dir Wind Speed Gust Speed Precip Events Conditions
12:53 AM 73.0 °F - 55.9 °F 55% 29.86 in 10.0 mi South 9.2 mph - N/A   Clear
1:53 AM 73.0 °F - 55.9 °F 55% 29.86 in 10.0 mi South 9.2 mph - N/A   Clear
2:53 AM 71.1 °F - 55.0 °F 57% 29.87 in 10.0 mi SSE 9.2 mph - N/A   Clear
3:53 AM 70.0 °F - 55.0 °F 59% 29.87 in 10.0 mi South 11.5 mph - N/A   Clear
4:53 AM 70.0 °F - 55.9 °F 61% 29.87 in 10.0 mi South 8.1 mph - N/A   Clear
5:53 AM 68.0 °F - 55.9 °F 65% 29.86 in 10.0 mi SSE 9.2 mph - N/A   Clear
6:53 AM 69.1 °F - 57.0 °F 65% 29.85 in 10.0 mi SSE 10.4 mph - N/A   Clear
7:53 AM 73.0 °F - 57.9 °F 59% 29.85 in 10.0 mi South 11.5 mph - N/A   Partly Cloudy
8:53 AM 75.0 °F - 57.9 °F 55% 29.85 in 10.0 mi South 12.7 mph 20.7 mph N/A   Clear
9:53 AM 77.0 °F - 59.0 °F 54% 29.84 in 10.0 mi South 11.5 mph 20.7 mph N/A   Clear
10:53 AM 78.1 °F - 59.0 °F 52% 29.84 in 10.0 mi South 12.7 mph 19.6 mph N/A   Clear
11:53 AM 80.1 °F 80.9 °F 60.1 °F 50% 29.83 in 10.0 mi SSE 12.7 mph - N/A   Clear
12:53 PM 82.0 °F 82.4 °F 60.1 °F 47% 29.83 in 10.0 mi South 16.1 mph - N/A   Clear
1:53 PM 84.9 °F 85.0 °F 61.0 °F 44% 29.82 in 10.0 mi SSE 17.3 mph 21.9 mph N/A   Clear
2:53 PM 87.1 °F 86.7 °F 60.1 °F 40% 29.80 in 10.0 mi South 19.6 mph 25.3 mph N/A   Clear
3:53 PM 87.1 °F 87.0 °F 61.0 °F 41% 29.79 in 10.0 mi South 19.6 mph 26.5 mph N/A   Clear
4:53 PM 88.0 °F 88.4 °F 62.1 °F 42% 29.79 in 10.0 mi SSW 17.3 mph 25.3 mph N/A   Clear
5:53 PM 88.0 °F 88.4 °F 62.1 °F 42% 29.78 in 10.0 mi South 16.1 mph 20.7 mph N/A   Mostly Cloudy
6:53 PM 86.0 °F 86.3 °F 62.1 °F 44% 29.78 in 10.0 mi South 16.1 mph 23.0 mph N/A   Mostly Cloudy
7:53 PM 84.0 °F 84.0 °F 60.1 °F 44% 29.78 in 10.0 mi South 11.5 mph - N/A   Scattered Clouds
8:53 PM 82.0 °F 82.4 °F 60.1 °F 47% 29.79 in 10.0 mi South 9.2 mph - N/A   Mostly Cloudy
9:53 PM 80.1 °F 80.9 °F 60.1 °F 50% 29.80 in 10.0 mi South 9.2 mph - N/A   Mostly Cloudy
10:53 PM 78.1 °F - 61.0 °F 56% 29.81 in 10.0 mi South 9.2 mph - N/A   Clear
11:53 PM 78.1 °F - 61.0 °F 56% 29.82 in 10.0 mi South 12.7 mph - N/A   Partly Cloudy